User: anonymous   Login
Location: Unspecified
(0.0000°N, 0.0000°E)
Time: 10:08:44
(UTC+00:00)
Language:

GEOEYE 1 - Orbit

View from above orbital plane
View from above orbital plane
View from above satellite
View from above satellite

Ground track
Ground track

The orbit is defined by the following mean orbital elements,

1 33331U          26145.60845682 +.00000000 +00000-0 +81571-4 0 00009
2 33331  98.1239 219.8254 0005344 123.9147 236.2565 14.64700022    06
Epoch (UTC): 25 May 2026 14:36:10
Eccentricity: 0.0005344
inclination: 98.1239°
perigee height: 674 km
apogee height: 682 km
right ascension of ascending node: 219.8254°
argument of perigee: 123.9147°
revolutions per day: 14.64700022
mean anomaly at epoch: 236.2565°

The dashed part of the orbit path shows where the satellite is in the earth's shadow,  

DLR